Hamlet, NC

4:14 AM EST on February 12, 2016 (GMT -0500)
Rockingham

Weather History for KRCZ - May, 2014

Change the Weather History Date:

Saturday, May 3, 2014

  Actual Average (KHFF) Record (KHFF)
Temperature  
Mean Temperature 64 °F -  
Max Temperature 76 °F 77 °F 90 °F (2012)
Min Temperature 53 °F 57 °F 44 °F (2015)
Growing Degree Days 14 (Base 50)    
Moisture  
Dew Point 49 °F    
Average Humidity 61    
Maximum Humidity 97    
Minimum Humidity 30    
Precipitation  
Precipitation 0.00 in - - ()
Sea Level Pressure  
Sea Level Pressure 29.90 in    
Wind  
Wind Speed 4 mph (West)    
Max Wind Speed 13 mph    
Max Gust Speed 17 mph    
Visibility 10 miles    
Events      
Averages and records for this station are not official NWS values.
T = Trace of Precipitation, MM = Missing Value Source: NWS Daily Summary

Daily Weather History Graph

Daily Weather History Graph

Search for Another Location

Airport or City:

Trip Planner

Search our weather history database for the weather conditions in past years. The results will help you decide how hot, cold, wet, or windy it might be!

Date:

Astronomy

May. 03, 2014 Rise Set
Actual Time 6:26 AM EDT 8:05 PM EDT
Civil Twilight 5:59 AM EDT 8:33 PM EDT
Nautical Twilight 5:26 AM EDT 9:05 PM EDT
Astronomical Twilight 4:52 AM EDT 9:40 PM EDT
Moon 9:56 AM EDT (5/3) No Moon Set
Length of Visible Light 14h 33m
Length of Day
13h 39m
Waxing Crescent, 19% of the Moon is Illuminated
May 3
Waxing Crescent
May 6
First Quarter
May 14
Full
May 21
Last Quarter
May 28
New

Hourly Weather History & Observations

Time (EDT) Temp. Dew Point Humidity Pressure Visibility Wind Dir Wind Speed Gust Speed Precip Events Conditions
12:15 AM 58.1 °F 51.8 °F 80% 29.91 in 10.0 mi Calm Calm - N/A   Unknown
12:35 AM 57.4 °F 52.0 °F 82% 29.91 in 10.0 mi Calm Calm - N/A   Unknown
12:55 AM 57.2 °F 51.8 °F 82% 29.90 in 10.0 mi Calm Calm - N/A   Unknown
1:15 AM 56.7 °F 51.8 °F 84% 29.90 in 10.0 mi SSW 3.5 mph - N/A   Unknown
1:35 AM 56.5 °F 52.0 °F 85% 29.90 in 10.0 mi South 4.6 mph - N/A   Unknown
1:55 AM 55.9 °F 52.0 °F 87% 29.89 in 10.0 mi South 4.6 mph - N/A   Unknown
2:15 AM 55.8 °F 52.2 °F 88% 29.89 in 10.0 mi South 4.6 mph - N/A   Unknown
2:35 AM 55.8 °F 52.2 °F 88% 29.88 in 10.0 mi SSW 3.5 mph - N/A   Unknown
2:55 AM 55.8 °F 52.3 °F 88% 29.88 in 10.0 mi Calm Calm - N/A   Unknown
3:15 AM 55.8 °F 52.7 °F 89% 29.89 in 10.0 mi SSW 4.6 mph - N/A   Unknown
3:35 AM 56.3 °F 52.9 °F 88% 29.89 in 10.0 mi South 3.5 mph - N/A   Unknown
3:55 AM 56.3 °F 52.9 °F 88% 29.89 in 10.0 mi South 3.5 mph - N/A   Unknown
4:15 AM 55.6 °F 52.7 °F 90% 29.88 in 10.0 mi Calm Calm - N/A   Unknown
4:35 AM 55.4 °F 52.9 °F 91% 29.88 in 10.0 mi Calm Calm - N/A   Unknown
4:55 AM 55.4 °F 52.9 °F 91% 29.89 in 10.0 mi Calm Calm - N/A   Unknown
5:15 AM 54.9 °F 52.7 °F 92% 29.89 in 10.0 mi Calm Calm - N/A   Unknown
5:35 AM 54.1 °F 52.5 °F 94% 29.89 in 10.0 mi Calm Calm - N/A   Unknown
5:55 AM 54.5 °F 52.9 °F 94% 29.90 in 10.0 mi Calm Calm - N/A   Unknown
6:15 AM 54.0 °F 52.7 °F 95% 29.90 in 10.0 mi Calm Calm - N/A   Unknown
6:35 AM 54.0 °F 53.1 °F 97% 29.90 in 7.0 mi Calm Calm - N/A   Unknown
6:55 AM 53.6 °F 52.7 °F 97% 29.91 in 7.0 mi Calm Calm - N/A   Unknown
7:15 AM 54.5 °F 53.6 °F 97% 29.90 in 5.0 mi Calm Calm - N/A   Mist
7:35 AM 55.0 °F 54.1 °F 97% 29.90 in 7.0 mi South 3.5 mph - N/A   Unknown
7:55 AM 55.4 °F 54.1 °F 96% 29.91 in 7.0 mi Calm Calm - N/A   Unknown
8:15 AM 56.1 °F 54.9 °F 96% 29.91 in 7.0 mi West 4.6 mph - N/A   Unknown
8:35 AM 57.6 °F 54.5 °F 90% 29.91 in 10.0 mi WSW 5.8 mph - N/A   Unknown
8:55 AM 59.4 °F 54.1 °F 83% 29.91 in 10.0 mi WNW 5.8 mph - N/A   Unknown
9:15 AM 60.6 °F 53.6 °F 78% 29.91 in 10.0 mi WNW 6.9 mph - N/A   Unknown
9:35 AM 62.2 °F 54.1 °F 75% 29.91 in 10.0 mi NW 3.5 mph - N/A   Unknown
9:55 AM 64.4 °F 52.7 °F 66% 29.91 in 10.0 mi NNW 6.9 mph - N/A   Unknown
10:15 AM 65.8 °F 53.2 °F 64% 29.92 in 10.0 mi NW 6.9 mph - N/A   Unknown
10:35 AM 66.6 °F 52.0 °F 59% 29.92 in 10.0 mi WNW 8.1 mph - N/A   Unknown
10:55 AM 66.9 °F 51.6 °F 58% 29.92 in 10.0 mi NW 4.6 mph - N/A   Unknown
11:15 AM 68.9 °F 51.6 °F 54% 29.92 in 10.0 mi WNW 4.6 mph - N/A   Unknown
11:35 AM 70.2 °F 48.7 °F 46% 29.92 in 10.0 mi NW 8.1 mph - N/A   Unknown
11:55 AM 71.4 °F 48.0 °F 43% 29.92 in 10.0 mi NW 6.9 mph - N/A   Unknown
12:15 PM 71.6 °F 48.6 °F 44% 29.91 in 10.0 mi North 3.5 mph - N/A   Unknown
12:35 PM 72.3 °F 46.9 °F 40% 29.91 in 10.0 mi NW 4.6 mph - N/A   Unknown
12:55 PM 72.7 °F 46.6 °F 39% 29.91 in 10.0 mi NNE 5.8 mph 9.2 mph N/A   Unknown
1:15 PM 73.4 °F 44.2 °F 35% 29.91 in 10.0 mi WNW 10.4 mph - N/A   Unknown
1:35 PM 73.6 °F 45.0 °F 36% 29.90 in 10.0 mi NW 5.8 mph - N/A   Unknown
1:55 PM 74.5 °F 45.0 °F 35% 29.91 in 10.0 mi West 10.4 mph 17.3 mph N/A   Unknown
2:15 PM 74.1 °F 44.4 °F 35% 29.90 in 10.0 mi NNW 10.4 mph - N/A   Unknown
2:35 PM 75.0 °F 44.8 °F 34% 29.90 in 10.0 mi WNW 8.1 mph 16.1 mph N/A   Unknown
2:55 PM 74.5 °F 44.4 °F 34% 29.90 in 10.0 mi WNW 8.1 mph - N/A   Unknown
3:15 PM 75.4 °F 44.6 °F 33% 29.90 in 10.0 mi NW 6.9 mph - N/A   Unknown
3:35 PM 75.6 °F 45.1 °F 34% 29.89 in 10.0 mi West 10.4 mph 16.1 mph N/A   Unknown
3:55 PM 76.1 °F 44.8 °F 33% 29.88 in 10.0 mi West 10.4 mph - N/A   Unknown
4:15 PM 76.3 °F 44.2 °F 32% 29.88 in 10.0 mi WSW 5.8 mph 16.1 mph N/A   Unknown
4:35 PM 76.5 °F 43.0 °F 30% 29.88 in 10.0 mi WNW 4.6 mph - N/A   Unknown
4:55 PM 76.6 °F 43.7 °F 31% 29.88 in 10.0 mi West 12.7 mph 17.3 mph N/A   Unknown
5:15 PM 76.6 °F 44.4 °F 32% 29.88 in 10.0 mi West 10.4 mph - N/A   Unknown
5:35 PM 76.3 °F 43.5 °F 31% 29.88 in 10.0 mi West 10.4 mph 17.3 mph N/A   Unknown
5:55 PM 76.1 °F 42.6 °F 30% 29.88 in 10.0 mi West 12.7 mph 17.3 mph N/A   Unknown
6:15 PM 75.6 °F 42.3 °F 30% 29.88 in 10.0 mi West 9.2 mph - N/A   Unknown
6:35 PM 75.2 °F 42.6 °F 31% 29.88 in 10.0 mi West 8.1 mph 17.3 mph N/A   Unknown
6:55 PM 74.7 °F 43.0 °F 32% 29.88 in 10.0 mi West 9.2 mph - N/A   Unknown
7:15 PM 73.8 °F 43.2 °F 33% 29.89 in 10.0 mi West 6.9 mph - N/A   Unknown
7:35 PM 72.3 °F 44.2 °F 36% 29.89 in 10.0 mi West 5.8 mph - N/A   Unknown
7:55 PM 70.0 °F 45.1 °F 41% 29.90 in 10.0 mi West 3.5 mph - N/A   Unknown
8:15 PM 69.1 °F 45.7 °F 43% 29.90 in 10.0 mi SW 3.5 mph - N/A   Unknown
8:35 PM 67.3 °F 46.4 °F 47% 29.90 in 10.0 mi Calm Calm - N/A   Unknown
8:55 PM 65.8 °F 46.4 °F 49% 29.91 in 10.0 mi SW 3.5 mph - N/A   Unknown
9:15 PM 64.4 °F 46.8 °F 53% 29.92 in 10.0 mi WSW 4.6 mph - N/A   Unknown
9:35 PM 64.6 °F 45.9 °F 51% 29.92 in 10.0 mi WSW 4.6 mph - N/A   Unknown
9:55 PM 63.9 °F 46.2 °F 53% 29.93 in 10.0 mi SW 4.6 mph - N/A   Unknown
10:15 PM 62.8 °F 46.4 °F 55% 29.93 in 10.0 mi SW 5.8 mph - N/A   Unknown
10:35 PM 62.6 °F 45.7 °F 54% 29.94 in 10.0 mi SW 3.5 mph - N/A   Unknown
10:55 PM 62.6 °F 45.5 °F 54% 29.94 in 10.0 mi SW 4.6 mph - N/A   Unknown
11:15 PM 61.3 °F 45.5 °F 56% 29.95 in 10.0 mi WSW 4.6 mph - N/A   Unknown
11:35 PM 61.2 °F 45.3 °F 56% 29.95 in 10.0 mi WSW 5.8 mph - N/A   Unknown
11:55 PM 61.9 °F 45.5 °F 55% 29.95 in 10.0 mi WSW 5.8 mph - N/A   Unknown